This is the latest recevied weather packets stored in our database for station/object HB9KBJ-8. If no packets are shown the sender has not sent any weather packets the latest 10 day(s).
| Time | Temp. | Humidity | Pressure | Rain* | Wind** | Luminosity | Snow |
|---|---|---|---|---|---|---|---|
| 1777558338 | 18.33° C | 34% | 1021.5 hPa | 0 mm | - | 636 W/m² | - |
| 1777558054 | 17.78° C | 34% | 1021.5 hPa | 0 mm | - | 647 W/m² | - |
| 1777557738 | 17.78° C | 33% | 1021.5 hPa | 0 mm | - | 657 W/m² | - |
| 1777557449 | 17.78° C | 34% | 1021.5 hPa | 0 mm | - | 666 W/m² | - |
| 1777557151 | 17.78° C | 34% | 1021.5 hPa | 0 mm | - | 675 W/m² | - |
| 1777556836 | 17.78° C | 34% | 1021.6 hPa | 0 mm | - | 686 W/m² | - |
| 1777556538 | 17.78° C | 34% | 1021.6 hPa | 0 mm | - | 693 W/m² | - |
| 1777556245 | 17.78° C | 34% | 1021.6 hPa | 0 mm | - | 701 W/m² | - |
| 1777555946 | 17.78° C | 35% | 1021.6 hPa | 0 mm | - | 710 W/m² | - |
| 1777555644 | 17.78° C | 34% | 1021.6 hPa | 0 mm | - | 719 W/m² | - |
| 1777555343 | 17.78° C | 34% | 1021.6 hPa | 0 mm | - | 726 W/m² | - |
| 1777555045 | 17.78° C | 35% | 1021.7 hPa | 0 mm | - | 729 W/m² | - |
| 1777554740 | 17.22° C | 36% | 1021.6 hPa | 0 mm | - | 738 W/m² | - |
| 1777554437 | 17.22° C | 35% | 1021.7 hPa | 0 mm | - | 744 W/m² | - |
| 1777554137 | 17.22° C | 36% | 1021.7 hPa | 0 mm | - | 752 W/m² | - |
| 1777553835 | 17.78° C | 38% | 1021.7 hPa | 0 mm | - | 758 W/m² | - |
| 1777553547 | 17.22° C | 38% | 1021.8 hPa | 0 mm | - | 765 W/m² | - |
| 1777553245 | 17.22° C | 37% | 1021.7 hPa | 0 mm | - | 768 W/m² | - |
| 1777552942 | 17.22° C | 37% | 1021.8 hPa | 0 mm | - | 773 W/m² | - |
| 1777552643 | 16.67° C | 39% | 1021.8 hPa | 0 mm | - | 780 W/m² | - |
| 1777552341 | 17.22° C | 38% | 1021.8 hPa | 0 mm | - | 784 W/m² | - |
| 1777552042 | 16.67° C | 38% | 1021.8 hPa | 0 mm | - | 789 W/m² | - |
| 1777551736 | 16.67° C | 38% | 1022 hPa | 0 mm | - | 791 W/m² | - |
| 1777551452 | 16.67° C | 40% | 1021.9 hPa | 0 mm | - | 796 W/m² | - |
| 1777551147 | 16.67° C | 38% | 1022 hPa | 0 mm | - | 800 W/m² | - |
* Rain latest hour (hover to see other rain measurements)
** Current wind speed in m/s (hover to see current wind gust speed)